Regional Weather Roundup
Issued by NWS Sterling, VA

Home | Current Version | Previous Version | Graphics & Text | Print | Product List | Glossary On
Versions: 1 2 3 4 5 6 7 8 9 10 11 12 13 14 15 16 17 18 19 20 21 22 23 24 25 26 27 28 29 30 31 32 33 34 35 36 37 38 39 40 41 42 43 44 45 46 47 48 49 50
000
ASUS41 KLWX 251111
RWRLWX

REGIONAL WEATHER ROUNDUP
NATIONAL WEATHER SERVICE BALTIMORE MD/WASHINGTON DC
700 AM EDT WED APR 25 2018

Note: "FAIR" indicates few or no clouds below 12,000 feet
with no significant weather and/or obstructions to visibility.
 TC=TEMPERATURE CELSIUS

 * =Non NWS site. Station does not report precipitation (e.g. rain,
    snow, etc.), thunder, or fog.

DCZ001-MDZ009-015-VAZ040>042-051-053>054-251200-
WASHINGTON METRO

CITY           SKY/WX    TMP DP  RH WIND       PRES   REMARKS
WASHINGTON NAT DRIZZLE   57  55  93 N8        29.80S FOG
DULLES         DRIZZLE   53  53 100 N6        29.81S FOG
ANDREWS AFB    FOG       56  56 100 NE5       29.79R VSB 3/8
FT BELVOIR     CLOUDY    56  56  97 CALM      29.79S
QUANTICO       LGT RAIN  57  57 100 N3        29.80S FOG
COLLEGE PARK*  CLOUDY    55  54  97 N3        29.80S
LEESBURG*      CLOUDY    50  50 100 N10       29.83S FOG
MANASSAS*      LGT RAIN  53  53 100 N9        29.81S FOG
GAITHERSBURG*  CLOUDY    54  53  97 VRB3      29.82R FOG

$$

MDZ006>007-011-014-251200-
BALTIMORE METRO

CITY           SKY/WX    TMP DP  RH WIND       PRES   REMARKS
BWI AIRPORT    CLOUDY    56  56 100 NE8       29.80S FOG
MD SCIENCE CTR   N/A     57  56  96 MISG      29.82S
MARTIN STATE   CLOUDY    57  57 100 CALM      29.83F FOG
ANNAPOLIS      CLOUDY    60  60 100 E3        29.79F
FORT MEADE*    CLOUDY    55  54  94 CALM      29.83S

$$

MDZ012-015-019>023-251200-
MARYLAND EASTERN SHORE

CITY           SKY/WX    TMP DP  RH WIND       PRES   REMARKS
OCEAN CITY     FOG       53  53 100 SE8       29.79S VSB 1/4
SALISBURY      CLOUDY    58  58 100 NE6       29.77F
BAY BRIDGE AP* CLOUDY    59  57  94 SE6       29.80S FOG
CAMBRIDGE*     CLOUDY    59  59 100 E5        29.78F
EASTON*        CLOUDY    59  57  94 E6        29.83F FOG

$$

MDZ017>025-251200-
SOUTHERN MARYLAND

CITY           SKY/WX    TMP DP  RH WIND       PRES   REMARKS
PATUXENT RIVER NOT AVBL
ST INIGOES     NOT AVBL
LEONARDTOWN*   CLOUDY    57  55  94 E6        29.79S

$$

MDZ003>005-251200-
NORTH CENTRAL MARYLAND

CITY           SKY/WX    TMP DP  RH WIND       PRES   REMARKS
FREDERICK*     DRIZZLE   52  52 100 N8        29.85S
HAGERSTOWN APT CLOUDY    52  50  93 N8        29.83S
WESTMINSTER*   DRIZZLE   54  54 100 NE3       29.82S

$$

MDZ501>502-251200-
WESTERN MARYLAND

CITY           SKY/WX    TMP DP  RH WIND       PRES   REMARKS
OAKLAND*       CLOUDY    43  43 100 SE3       29.84R VSB<1/4
CUMBERLAND*    CLOUDY    52  52 100 CALM      29.89R VSB 3/4

$$

VAZ025>031-251200-
SHENANDOAH VALLEY

CITY           SKY/WX    TMP DP  RH WIND       PRES   REMARKS
WINCHESTER*    FOG       50  48  93 CALM      29.85S VSB 3/4
FRONT ROYAL*   CLOUDY    50  50 100 CALM      29.83R VSB 3/4
LURAY*         CLOUDY    52  50  93 N5        29.83R
NEW MARKET*    CLOUDY    50  49  96 NE5       29.82S
STAUNTON*      CLOUDY    49  49  98 N7        29.83R FOG
WAYNESBORO*    CLOUDY    49  49  99 CALM      29.82R

$$

WVZ021-048>050-054>055-251200-
EASTERN WEST VIRGINIA PANHANDLE

CITY           SKY/WX    TMP DP  RH WIND       PRES   REMARKS
MARTINSBURG    CLOUDY    51  50  96 N7        29.82F
PETERSBURG*    DRIZZLE   50  49  96 CALM      29.84S

$$

VAZ036>039-050-251200-
CENTRAL FOOTHILLS

CITY           SKY/WX    TMP DP  RH WIND       PRES   REMARKS
CHARLOTTESVILL RAIN      55  53  93 N3        29.79R FOG
CULPEPER*      LGT RAIN  54  52  94 N8        29.81S
ORANGE*        CLOUDY    52  50  93 N10       29.79S
GORDONSVILLE*  CLOUDY    53  53 100 N3        29.78S
WARRENTON*     DRIZZLE   55  51  89 N6        29.79S

$$

VAZ055>057-251200-
NORTH AND CENTRAL PIEDMONT

CITY           SKY/WX    TMP DP  RH WIND       PRES   REMARKS
FREDERICKSBRG* DRIZZLE   55  55 100 NW3       29.78R
STAFFORD*      CLOUDY    56  56 100 N3        29.83R FOG

$$

NCZ024-NYZ072-PAZ021-071-VAZ022-071-251200-
OTHER REGIONAL OBSERVATIONS

CITY           SKY/WX    TMP DP  RH WIND       PRES   REMARKS
NEW YORK CITY  HVY RAIN  54  53  97 VRB6      29.98S VSB 3/4
PHILADELPHIA   CLOUDY    55  54  96 E10       29.86S FOG
PITTSBURGH     CLOUDY    51  49  92 NE3       29.83F
ROANOKE        CLOUDY    54  50  86 N8        29.80R
RICHMOND       LGT RAIN  59  59 100 E5        29.76R FOG
RALEIGH        CLOUDY    60  60 100 SW5       29.74R FOG

$$

ANZ530>537-251200-
MARINE OBSERVATIONS

STATION/POSITION TIME  TEMP    WIND        PRES
                       AIR SEA DIR/SP/G
                 (UTC) (F)     (DEG/KT/KT) (MB)
THOMAS PT LIGHT  1100   57 53   80/  7/  8 1009.9F
BALT KEY BRIDGE  1048   56      40/  7/  8 1009.4F
COVE POINT       1048   57     140/  5/  8 1008.9F
LEWISETTA        1048   55 55  130/  3/  4 1008.0F
SOLOMONS ISLAND  1048   57 54   80/  4/  5 1007.9R
PINEY POINT      1048          130/  4/  4   N/A

$$




USA.gov is the U.S. government's official web portal to all federal, state and local government web resources and services.